Regional Weather Roundup
Issued by NWS

Home | Current Version | Previous Version | Text Only | Print | Product List | Glossary On
Versions: 1 2 3 4 5 6 7 8 9 10 11 12 13 14 15 16 17 18 19 20 21 22 23 24 25 26 27 28 29 30 31 32 33 34 35 36 37 38 39 40 41 42 43 44 45 46 47 48 49 50
000
ASUS46 KPQR 040610
RWROR

OREGON REGIONAL WEATHER ROUNDUP
NATIONAL WEATHER SERVICE PORTLAND OR
1100 PM PDT MON AUG 03 2015

NOTE: "FAIR" INDICATES FEW OR NO CLOUDS BELOW 12,000 FEET WITH
NO SIGNIFICANT WEATHER AND/OR OBSTRUCTIONS TO VISIBILITY.

ORZ001>013-040700-
NORTHWEST OREGON


CITY           SKY/WX    TMP DP  RH WIND       PRES   REMARKS
ASTORIA        PTCLDY    61  56  83 NW8       30.02R
6HR MIN TEMP:  61; 6HR MAX TEMP:  68;

NEWPORT        PTCLDY    54  54 100 CALM      30.03S
PORTLAND       MOCLDY    67  56  67 NW6       29.97R
6HR MIN TEMP:  67; 6HR MAX TEMP:  82;

VANCOUVER WA   MOCLDY    67  55  65 VRB6      29.96R
6HR MIN TEMP:  67; 6HR MAX TEMP:  81;

SCAPPOOSE      PTCLDY    65  55  70 NW6       29.96R
6HR MIN TEMP:  65; 6HR MAX TEMP:  82;

HILLSBORO      PTCLDY    65  54  67 NW14      29.96R
6HR MIN TEMP:  65; 6HR MAX TEMP:  82;

AURORA         MOCLDY    70  54  56 N9        29.96R
6HR MIN TEMP:  70; 6HR MAX TEMP:  82;

MCMINNVILLE    PTCLDY    65  56  72 W7        29.96R
6HR MIN TEMP:  65; 6HR MAX TEMP:  83;

SALEM          MOCLDY    70  55  59 W5        29.94R
6HR MIN TEMP:  70; 6HR MAX TEMP:  84;

CORVALLIS      PTCLDY    64  54  68 W14       29.96S
EUGENE         MOCLDY    66  54  65 CALM      29.95S
6HR MIN TEMP:  66; 6HR MAX TEMP:  88;

$$

ORZ021-028-040700-
SOUTHWEST OREGON


CITY           SKY/WX    TMP DP  RH WIND       PRES   REMARKS
NORTH BEND     CLOUDY    59  59 100 N7        30.03S
6HR MIN TEMP:  59; 6HR MAX TEMP:  63;

BROOKINGS      CLOUDY    60  60 100 CALM      30.00F
ROSEBURG       CLEAR     71  55  56 MISG      29.95S
6HR MIN TEMP:  71; 6HR MAX TEMP:  86;

SEXTON SUMMIT  CLEAR     62  53  72 N14       30.05S
6HR MIN TEMP:  60; 6HR MAX TEMP:  78;

MEDFORD        CLEAR     77  54  44 CALM      29.92S
6HR MIN TEMP:  76; 6HR MAX TEMP:  94;

$$

ORZ014>016-041-040700-
COLUMBIA GORGE


CITY           SKY/WX    TMP DP  RH WIND       PRES   REMARKS
TROUTDALE      CLOUDY    69  56  62 MISG      29.94R
6HR MIN TEMP:  69; 6HR MAX TEMP:  83;

THE DALLES     CLOUDY    77  50  38 NW16      29.85S
6HR MIN TEMP:  77; 6HR MAX TEMP:  87;

$$

ORZ029>031-041-044-049-050-061>064-502-503-505>511-040700-
EASTERN OREGON


CITY           SKY/WX    TMP DP  RH WIND       PRES   REMARKS
REDMOND        MOCLDY    62  40  44 CALM      30.00S
6HR MIN TEMP:  62; 6HR MAX TEMP:  85;

BEND           CLOUDY    68  41  37 CALM      30.03R
PRINEVILLE     MOCLDY    64  39  39 SW5       30.00S
KLAMATH FALLS  PTCLDY    65  48  54 W5        30.05R
6HR MIN TEMP:  63; 6HR MAX TEMP:  79; 6HR PCP: TRACE;

LAKEVIEW       PTCLDY    63  46  55 N12       30.08F
HERMISTON      CLEAR     75  51  43 SW10      29.81R
6HR MIN TEMP:  74; 6HR MAX TEMP:  86;

PENDLETON      CLEAR     77  44  30 SW9       29.86S
6HR MIN TEMP:  70; 6HR MAX TEMP:  85;

JOHN DAY       MOCLDY    74  45  35 S7        30.02F
MEACHAM        CLEAR     56  48  74 CALM      30.01S
6HR MIN TEMP:  56; 6HR MAX TEMP:  75;

LA GRANDE      CLEAR     64  39  39 S5        29.96R
6HR MIN TEMP:  63; 6HR MAX TEMP:  81;

BAKER CITY     CLEAR     62  47  57 CALM      29.99S
6HR MIN TEMP:  56; 6HR MAX TEMP:  80;

BURNS          CLOUDY    60  56  86 N21G29    30.06F
6HR MIN TEMP:  58; 6HR MAX TEMP:  87; 6HR PCP:  0.20;

ROME             N/A     72  48  42 NW13      30.00R
6HR MIN TEMP:  72; 6HR MAX TEMP:  93;

ONTARIO        CLEAR     80  43  26 NW18G25   29.87S
6HR MIN TEMP:  79; 6HR MAX TEMP:  94;

$$



USA.gov is the U.S. government's official web portal to all federal, state and local government web resources and services.